Regional Weather Roundup
Issued by NWS

Home | Current Version | Previous Version | Graphics & Text | Print | Product List | Glossary On
Versions: 1 2 3 4 5 6 7 8 9 10 11 12 13 14 15 16 17 18 19 20 21 22 23 24 25 26 27 28
000
ASUS45 KCYS 232310
RWRWY

WYOMING REGIONAL WEATHER ROUNDUP
NATIONAL WEATHER SERVICE CHEYENNE WY
500 PM MDT TUE MAY 23 2017

NOTE:  "FAIR" INDICATES FEW OR NO CLOUDS BELOW 12,000 FEET
WITH NO SIGNIFICANT WEATHER AND/OR OBSTRUCTIONS TO VISIBILITY.

WYZ001-240000-
YELLOWSTONE NATIONAL PARK

CITY           SKY/WX    TMP DP  RH WIND       PRES   REMARKS
LK YELLOWSTONE   N/A     62  31  31 VRB7      30.21F
W YELLOWSTONE  NOT AVBL

$$
WYZ002>013-054>058-071-098>099-240000-
NORTHERN WYOMING

CITY           SKY/WX    TMP DP  RH WIND       PRES   REMARKS
JACKSON        SUNNY     70  34  26 SW9       30.15F
CODY           FAIR      68  37  32 E12       30.06F
GREYBULL       FAIR      72  24  16 CALM      30.01F
WORLAND        FAIR      71  29  21 NE5       30.03F
SHERIDAN       FAIR      66  35  31 E6        30.06F
BUFFALO        FAIR      62  33  33 E8        30.10F
GILLETTE       FAIR      63  34  33 NE6       30.08F
HULETT         FAIR      61  32  33 N8        30.09S
NEWCASTLE      FAIR      63  28  27 NW13G20   30.08F

$$
WYZ014>020-022>026-101>103-240000-
CENTRAL WYOMING

CITY           SKY/WX    TMP DP  RH WIND       PRES   REMARKS
BIG PINEY      FAIR      68  28  22 NW9G17    30.17F
PINEDALE       FAIR      64  28  25 NW16      30.17F
DUBOIS         FAIR      64  27  24 N9G21     30.15F
LANDER         FAIR      65  30  27 SE6       30.09F
RIVERTON       FAIR      65  28  24 S6        30.10F
CASPER         FAIR      62  37  39 N3        30.11F
DOUGLAS        FAIR      61  31  32 NW12G21   30.11F

$$
WYZ021-027>030-104>119-240000-
SOUTHERN WYOMING

CITY           SKY/WX    TMP DP  RH WIND       PRES   REMARKS
EVANSTON       FAIR      69  35  28 W14       30.21F
KEMMERER         N/A     68  32  26 NW12G20   30.21F
FORT BRIDGER   FAIR      71  31  22 NW15G22   30.22F
ROCK SPRINGS   FAIR      65  29  25 N5        30.17F
DIXON            N/A     62  31  30 SW9       30.22F
RAWLINS        FAIR      61  21  21 NW12      30.18F
SARATOGA       FAIR      59  27  29 NW13      30.20F
LARAMIE        FAIR      55  27  34 NW18      30.16F
CHEYENNE       FAIR      57  30  35 N15G26    30.13F
TORRINGTON     FAIR      63  27  25 NW20G26   30.06F

$$




USA.gov is the U.S. government's official web portal to all federal, state and local government web resources and services.